RH
87 88 94 92 93 94 93 95 94 94 95 93 94 96 98 94 86 89 91 90 91 92 92 92 94 96 98 96 90 95 95 96 92 88 82 72 68 66 63 55 50 42 35 34
90 90 89 93 84 90 92 91 89 80 90 88 93 95 94 89 85 90 89 88 88 89 90 93 93 96 96 96 90 93 98 97 96 92 81 78 71 65 58 54 52 50 49 37
86 62 72 89 95 93 94 93 94 93 94 93 91 95 94 91 88 87 87 88 90 91 89 91 96 96 98 94 95 92 96 96 97 91 80 79 76 71 71 66 70 77 62 44
94 76 91 95 71 85 95 95 92 91 93 95 94 96 90 90 89 86 84 87 87 87 89 94 98 99 98 98 95 91 93 97 95 91 82 82 76 74 75 76 67 60 54 52
94 87 77 61 71 74 95 94 90 93 91 91 89 94 82 76 76 82 83 82 83 87 92 97 99 100 100 100 97 96 95 95 94 88 86 84 80 77 74 70 69 63 61 53
87 94 94 91 57 52 64 95 75 92 92 93 84 84 86 85 78 80 79 82 85 88 94 98 100 100 100 100 99 95 97 97 95 89 88 86 84 84 83 82 83 88 76 68
85 88 87 63 58 44 72 88 88 91 92 92 93 94 93 79 82 80 82 86 88 89 96 100 100 100 100 100 100 99 100 100 96 92 92 89 88 88 86 88 88 90 87 78
86 82 79 53 60 83 93 82 79 87 92 93 89 85 84 81 86 85 87 87 91 92 97 100 100 100 100 99 100 100 99 99 96 97 98 97 96 99 98 94 94 94 91 96
93 81 59 52 64 58 66 91 87 93 91 94 90 90 88 90 88 86 88 91 94 96 98 100 100 100 100 100 100 100 100 100 100 100 100 100 99 100 100 100 100 100 100 100
88 73 68 60 58 56 67 90 85 92 94 92 95 92 91 89 90 89 92 96 98 96 99 99 100 100 100 100 100 100 100 100 100 100 100 100 100 100 100 100 100 100 100 100
91 73 67 59 58 63 74 80 85 86 88 96 95 93 96 92 91 93 96 98 98 99 100 100 100 100 100 100 100 99 99 100 99 100 100 100 100 100 100 100 99 99 99 99
96 73 83 82 67 72 88 91 91 95 91 90 95 95 93 93 96 97 97 98 97 100 100 100 100 100 100 100 100 99 100 99 99 99 100 100 100 100 100 99 100 100 99 98
93 74 86 85 80 80 94 93 92 94 95 96 95 97 97 96 97 94 97 98 99 100 100 100 100 100 100 100 99 100 100 100 100 100 100 100 100 100 99 100 99 98 98 98
85 94 92 82 92 92 94 95 96 97 97 97 97 97 97 96 95 96 97 99 99 100 100 99 100 100 100 99 98 99 99 98 99 99 100 100 100 100 99 98 99 100 99 98
87 90 94 94 94 94 96 96 95 96 96 95 97 97 96 94 95 97 99 97 97 98 99 99 99 100 99 98 97 98 98 99 99 99 99 100 100 100 100 99 99 100 100 99
92 92 94 95 96 96 95 93 93 95 94 95 94 96 97 98 98 98 99 99 95 96 99 98 98 98 98 98 99 99 99 98 98 99 100 99 99 99 99 99 99 99 99 99
97 91 92 93 96 96 96 95 95 95 94 94 96 97 97 96 94 96 97 97 99 98 98 97 98 97 97 97 97 98 99 99 99 98 98 99 99 98 98 98 98 98 98 100
96 96 96 96 96 95 94 96 96 96 96 97 97 96 95 94 96 96 97 97 97 96 97 98 97 97 97 97 96 97 98 98 98 98 98 98 98 98 98 98 98 98 99 98
96 96 96 97 97 96 96 96 97 97 97 97 96 96 97 97 97 97 97 95 94 93 97 97 97 96 97 98 96 97 97 97 98 98 98 98 97 98 98 98 98 97 95 91
95 96 96 97 96 96 96 97 97 97 97 96 97 96 96 97 97 97 96 97 98 98 96 96 96 96 97 97 96 96 96 96 97 97 97 97 97 97 97 96 96 94 87 73
96 96 96 97 96 96 96 96 96 97 96 96 96 97 97 97 98 96 90 93 100 100 98 93 88 96 96 97 96 96 96 96 96 97 97 98 98 95 93 88 82 71 69 67
96 93 94 96 96 96 96 96 96 96 97 96 96 96 96 99 94 98 100 100 100 98 94 95 94 83 76 77 81 82 83 83 85 85 86 84 82 80 77 68 66 68 71 74
93 92 94 95 96 96 96 95 96 96 98 99 99 98 100 100 100 94 94 98 100 98 99 97 84 55 55 59 62 63 63 63 65 69 71 71 72 69 65 67 72 75 80 85
94 93 94 93 90 89 96 97 96 96 96 97 100 95 93 99 100 100 100 100 100 98 96 89 75 59 56 60 60 61 63 68 73 75 73 66 60 62 66 74 80 82 82 79
95 94 92 92 96 100 97 95 91 92 94 97 98 99 90 88 90 88 83 93 86 75 89 98 71 67 70 72 73 75 76 73 70 67 66 66 68 71 80 86 86 82 86 89
93 97 99 99 100 99 96 92 99 96 92 98 99 99 99 97 94 86 92 88 86 82 82 88 87 85 85 83 82 83 81 83 82 83 82 82 80 76 71 68 97 100 93 82
97 92 91 93 95 97 98 98 95 100 96 96 100 100 100 98 100 97 94 93 94 97 97 94 92 92 89 88 89 91 90 89 88 87 89 89 90 88 90 93 95 93 92 90
Wind_Speed
14 9 2 15 22 16 18 14 8 12 10 23 24 24 17 16 18 20 22 20 17 15 12 12 12 7 19 32 35 34 32 32 33 33 33 34 36 36 39 41 41 43 42 40
2 5 7 8 18 18 11 20 11 14 9 24 22 17 16 24 20 20 17 18 17 15 14 12 13 13 8 25 34 36 33 31 30 31 33 34 37 36 39 38 39 37 37 39
4 9 9 3 19 20 11 17 16 16 17 13 19 14 20 22 20 19 18 17 16 14 12 12 15 12 7 19 29 32 31 29 29 32 31 33 35 37 36 35 36 37 36 37
4 7 4 4 13 15 15 10 23 19 19 17 17 9 19 21 18 20 18 16 15 12 13 18 18 13 5 15 26 28 27 29 31 33 31 31 33 33 32 35 35 36 38 37
4 4 3 2 22 24 11 3 22 20 23 24 24 8 5 24 21 18 17 14 13 18 17 18 18 17 5 11 22 24 27 28 31 32 31 33 32 33 34 35 33 30 32 36
4 4 5 8 25 25 7 3 26 25 24 23 22 15 12 22 19 16 15 17 18 20 20 22 26 21 5 14 19 20 24 28 31 33 34 33 33 34 33 32 32 32 28 29
6 3 2 16 21 19 8 9 24 23 19 17 14 8 13 17 15 16 17 18 20 20 19 21 26 21 15 13 14 21 24 27 30 31 32 33 34 34 34 33 32 30 31 28
5 4 4 21 9 9 8 14 20 20 18 19 18 16 14 14 15 14 14 21 24 20 20 22 24 19 16 15 2 23 28 31 31 32 31 33 35 32 33 34 33 31 29 26
2 3 7 14 2 11 13 16 18 16 17 16 15 14 15 14 14 13 17 19 20 17 17 20 23 23 17 16 7 25 32 33 34 33 33 36 38 36 32 32 32 30 31 29
5 1 11 12 6 16 17 17 19 14 14 13 13 12 11 12 11 11 15 16 18 17 17 18 23 22 18 14 13 22 27 28 29 31 30 29 28 30 31 31 30 30 28 29
5 4 14 3 15 15 19 18 15 12 11 11 10 10 9 10 11 12 14 16 15 15 15 17 20 20 16 14 18 25 25 26 28 28 29 30 25 23 25 25 33 35 33 35
4 9 8 15 15 22 18 13 14 11 14 14 13 11 10 9 13 13 13 14 15 17 17 19 20 19 16 14 18 23 24 24 27 27 27 27 29 26 21 24 24 27 30 34
5 9 15 19 17 15 13 13 13 10 12 10 14 13 12 8 11 12 14 16 17 17 18 19 20 20 17 16 19 23 23 22 24 27 27 27 27 30 29 26 27 32 33 35
8 9 8 5 9 14 13 15 14 13 13 12 11 12 10 9 12 15 17 18 20 21 21 21 22 22 20 22 25 26 25 25 24 24 26 27 29 29 30 29 29 30 32 38
7 7 8 12 10 10 12 11 7 8 8 10 14 13 14 13 14 17 21 22 21 23 23 24 23 22 21 23 27 27 26 26 26 27 28 30 31 30 30 31 30 31 34 34
12 7 6 6 7 7 6 6 5 8 9 13 15 17 17 19 20 22 25 25 22 19 21 23 24 23 24 27 27 27 28 28 28 28 29 29 29 30 30 31 31 30 30 31
4 7 6 5 6 6 5 8 10 10 14 17 18 19 21 19 22 23 24 25 27 26 24 23 23 24 26 28 28 26 27 28 29 30 29 29 29 29 30 30 28 27 28 30
4 4 6 4 5 6 7 13 15 17 17 18 20 21 22 22 18 20 22 23 25 29 29 25 21 23 25 27 28 28 29 28 29 29 29 30 30 31 31 31 30 30 29 25
12 9 11 13 14 14 11 14 17 18 19 19 19 19 20 21 21 21 22 25 24 22 25 24 23 25 24 22 28 28 28 29 29 28 29 29 30 29 30 30 30 30 28 24
14 15 16 16 18 16 15 17 17 18 19 19 17 19 20 22 21 20 23 26 24 22 22 21 23 24 24 23 26 28 29 28 28 27 29 29 29 29 28 28 29 26 24 23
12 14 15 14 14 16 18 17 17 17 19 20 18 17 17 21 24 21 22 21 23 22 22 22 22 22 22 24 26 27 28 29 28 26 26 26 26 27 27 25 23 23 24 23
10 11 12 13 13 15 17 18 18 19 20 20 20 20 18 19 18 23 26 20 20 20 25 25 23 21 21 21 23 24 24 25 25 24 25 25 25 25 23 22 23 23 23 22
9 9 11 12 11 12 16 18 18 19 20 19 20 20 18 20 21 15 17 21 23 22 25 25 22 23 23 25 25 24 24 23 24 23 23 22 22 22 22 22 22 21 20 19
7 9 10 9 11 15 14 14 15 16 17 19 19 20 19 16 22 22 20 19 21 25 26 23 23 23 24 25 24 24 23 23 23 22 20 19 19 19 19 19 18 15 13 13
8 9 9 12 11 10 10 11 13 14 15 17 17 17 19 20 21 20 23 23 23 25 25 22 23 24 25 25 24 23 22 21 19 18 17 17 16 15 14 13 11 10 8 8
7 9 10 11 11 11 10 11 12 12 11 14 15 15 15 15 15 16 18 19 21 21 22 22 21 21 21 21 19 18 17 16 15 14 12 11 9 7 7 7 9 7 6 6
7 7 8 10 10 10 10 10 11 11 10 10 12 13 12 11 12 13 14 16 17 17 18 17 17 16 16 15 16 16 14 14 12 11 10 9 9 8 8 8 6 4 4 6
Wind_Direction
304 292 254 45 10 -0 27 6 30 323 336 356 345 347 348 40 39 50 46 40 37 33 28 22 19 168 167 163 166 169 170 172 176 175 175 173 183 182 188 190 193 191 187 191
292 314 342 51 11 358 1 20 7 355 12 345 340 329 354 38 26 41 42 32 27 23 21 17 20 18 189 166 165 169 171 176 172 171 170 172 180 180 185 187 186 185 187 189
280 323 315 2 11 348 348 32 9 13 329 323 337 343 10 20 19 25 30 22 18 14 8 2 1 354 359 173 164 170 167 168 167 168 167 169 175 178 181 183 189 188 188 193
290 317 52 163 9 352 336 28 12 356 343 332 329 247 28 17 11 16 16 10 7 359 355 360 350 353 320 174 167 169 167 166 165 167 164 165 168 173 172 180 182 180 184 189
330 319 257 350 353 341 337 289 11 342 344 354 351 340 356 8 10 7 5 357 353 352 352 352 355 347 307 167 162 160 164 164 163 165 160 162 165 167 171 170 170 170 176 178
331 344 350 359 336 330 310 236 359 347 345 354 350 16 348 346 355 357 2 358 351 353 359 1 354 357 237 157 152 164 165 167 163 164 165 166 167 169 170 172 173 176 173 176
350 355 93 357 337 328 42 310 327 334 333 344 4 342 318 337 347 355 355 352 1 9 8 357 359 5 41 136 144 159 162 160 160 165 165 165 164 166 164 160 161 161 162 165
331 350 0 3 349 31 313 311 322 330 336 343 340 338 344 344 356 358 359 360 4 6 3 2 12 18 34 32 87 162 164 160 161 164 159 163 164 158 161 158 149 146 145 147
293 305 358 335 263 348 331 325 330 323 334 333 335 341 349 347 350 356 2 0 359 1 2 11 17 29 28 28 86 152 159 156 157 159 160 166 162 152 146 145 144 145 145 144
333 29 323 312 303 339 333 323 315 323 328 333 338 342 346 350 355 357 3 1 355 3 10 15 20 30 44 61 90 112 119 126 137 140 144 149 147 150 146 148 148 148 148 148
266 301 325 105 326 317 322 318 319 332 333 340 341 349 350 355 359 358 2 358 5 13 13 16 31 39 43 61 104 102 97 106 110 116 123 126 130 140 148 155 158 155 155 152
273 315 292 285 305 312 314 324 333 341 342 350 353 357 356 3 357 0 1 3 17 22 25 24 38 48 59 82 100 104 98 105 111 112 113 115 116 108 127 134 139 144 145 145
268 293 289 283 295 295 318 334 337 348 354 346 353 358 6 356 5 17 15 20 23 27 35 40 42 48 65 86 103 97 99 105 108 115 116 118 119 118 116 120 132 137 140 141
263 277 289 260 310 321 333 339 343 356 360 2 3 14 14 14 21 24 23 24 35 40 41 45 50 54 74 87 93 92 95 101 102 108 114 115 116 117 119 121 120 121 136 140
313 303 265 290 319 342 352 350 2 7 5 15 23 24 26 29 32 33 34 36 40 42 42 47 48 54 82 93 93 93 94 95 100 104 107 109 113 114 116 117 117 118 123 128
304 304 324 345 342 347 345 350 20 22 22 28 29 27 31 38 41 40 39 39 40 35 37 45 50 64 85 90 88 90 93 98 99 101 103 106 109 111 114 116 118 119 121 124
333 352 340 346 352 347 358 21 32 32 32 33 29 32 36 39 43 41 39 42 45 42 48 54 56 78 90 93 89 88 90 95 98 98 99 102 106 108 110 111 110 109 114 127
334 327 352 355 4 6 20 26 34 36 34 36 37 39 39 37 37 38 38 41 45 44 42 55 72 85 89 94 94 92 92 92 94 96 99 99 102 106 107 107 109 110 110 115
23 22 24 30 24 26 25 29 33 37 37 41 43 40 40 37 39 41 45 44 41 38 31 56 75 78 77 88 97 95 95 95 95 96 100 105 102 104 106 108 110 117 126 130
27 30 34 35 36 29 30 33 40 40 39 43 47 46 44 37 36 42 47 46 40 43 50 66 78 81 85 91 106 103 101 99 99 99 104 104 105 105 109 120 128 131 134 136
30 31 32 32 30 38 41 43 43 38 41 47 44 40 43 45 44 44 48 47 35 44 51 60 71 79 90 101 105 107 110 108 105 105 109 112 118 123 128 133 133 135 136 138
36 40 37 32 32 38 50 55 54 52 50 52 52 47 42 40 50 54 53 50 46 51 57 60 66 76 90 98 101 105 109 113 116 120 122 125 128 129 129 132 133 135 138 140
44 48 49 38 34 47 61 59 57 58 51 53 54 54 47 49 45 51 59 50 55 58 61 60 68 81 88 92 96 99 102 105 109 113 118 123 126 129 131 134 137 139 140 142
56 59 61 64 71 62 45 47 60 63 65 65 64 64 63 55 60 64 64 65 65 62 61 65 74 82 88 90 92 94 97 102 108 111 113 117 121 127 132 135 138 143 150 163
77 75 73 67 51 43 58 59 65 64 66 67 68 70 69 70 72 71 73 70 66 73 73 67 77 82 84 87 90 93 95 97 102 107 111 116 122 129 137 146 153 154 162 161
83 76 73 68 61 60 59 67 61 56 66 65 65 68 73 74 74 74 72 69 69 70 73 74 74 78 82 80 84 90 95 98 100 101 107 115 121 125 135 155 143 161 169 173
83 81 79 68 58 58 55 58 65 57 59 69 71 66 73 79 76 79 76 72 68 70 71 72 73 73 74 76 80 82 87 90 87 92 104 113 119 120 119 125 129 129 140 154